Starlink 31406

operational
NORAD ID: 59017 Int'l Des: 2024-036 Owner: SPXS Country: US Constellation: starlink
LEOCIRCULAR

About Starlink 31406

Description loading...

Live Position

Loading 3D Globe...

Upcoming Passes

Altitude History

Altitude vs Time

uPlot chart will show altitude changes over time

Two-Line Element Set

1 59017U 24036V 25303.28762747 .00002050 00000-0 81372-4 0 9995
2 59017 53.1602 310.6622 0001321 92.2967 267.8185 15.30180563 95545
Epoch: Oct 30, 2025 • Age: 14 hours

Current Status

Altitude 475.7 km
Velocity 7.63 km/s
Sub-Earth Point 23.35°N, 29.86°W
Launch Date Feb 23, 2024
Age 1.6 years
Type internet

Technical Details

Classification Payload
Mass 730.00 kg
Dry Mass 700.00 kg
Total Mass 730.00 kg
Length 0.30 m
Diameter 4.10 m
Span 29.00 m
Shape Box + pan
Manufacturer SPXS
Bus Type Starlink V2M
Phase Status In Orbit
Owner/State SPXS/US

Large Constellations

Loading constellations...